H-2A R/B - Orbit

View from above orbital plane
View from above orbital plane
View from above satellite
View from above satellite

Ground track
Ground track

The orbit data is extracted from the following two-line orbital elements,

1 27601U 02056E   13143.14768262  .00000215  00000-0  94950-4 0  8120
2 27601 098.5062 229.3182 0072568 011.7849 045.4417 14.31143719545219
Epoch (UTC): 23 May 2013 03:32:39
Eccentricity: 0.0072568
inclination: 98.5062°
perigee height: 736 km
apogee height: 840 km
right ascension of ascending node: 229.3182°
argument of perigee: 11.7849°
revolutions per day: 14.31143719
mean anomaly at epoch: 45.4417°
orbit number at epoch: 54521

The dashed part of the orbit path shows where the satellite is in the earth's shadow,  

Developed and maintained by Chris Peat, Heavens-Above GmbH. Please read the updated FAQ before sending e-mail. Imprint. DLR